Date String (YYYY-MM-DD hh:mm:ss) UTC,Instrument flags,Ambient pressure (hPa),Sample flow (lpm),Bypass flow (lpm),Sample temperature (°C),Ambient temperature (°C),ASC tube jacket temperature (°C),LED temperature (°C),Box temperature (°C),Sample RH (%),Span deviation,Mass concentration (μg/m³),Mass concentration (μg/m³),Mass concentration (μg/m³)
DateTimeUTC,F1_M11,P_M11,Q1_M11,Q2_M11,T1_M11,T2_M11,T3_M11,T4_M11,T5_M11,U1_M11,ZSPAN_M11,X0_M11,X2_M11,X1_M11
2021-12-29 12:00:00,,0811.7,5.00,0.00,22.3,21.4,00.0,31.5,23.8,06.2,0000.0,0015.13,0003.29,0001.32
2021-12-29 12:01:00,,0811.7,5.00,0.00,22.3,21.6,00.0,31.4,23.8,06.1,0000.0,0014.28,0003.35,0001.32
2021-12-29 12:02:00,,0811.7,5.00,0.00,22.4,22.3,00.0,31.5,24.1,06.1,0000.0,0014.65,0003.36,0001.32
2021-12-29 12:03:00,,0811.7,5.02,0.00,22.5,23.0,00.0,31.5,24.3,06.1,0000.0,0015.00,0003.34,0001.32
2021-12-29 12:04:00,,0811.7,5.00,0.00,22.6,23.4,00.0,31.5,24.5,06.1,0000.0,0015.12,0003.35,0001.31
2021-12-29 12:05:00,,0811.7,4.99,0.00,22.7,23.2,00.0,31.6,24.5,06.1,0000.0,0014.93,0003.31,0001.33
2021-12-29 12:06:00,,0811.7,5.00,0.00,22.7,22.9,00.0,31.6,24.5,06.1,0000.0,0015.58,0003.31,0001.33
2021-12-29 12:07:00,,0811.7,4.99,0.00,22.6,22.6,00.0,31.6,24.3,06.1,0000.0,0016.07,0003.30,0001.34
2021-12-29 12:08:00,,0811.7,5.00,0.00,22.6,22.4,00.0,31.6,24.2,06.1,0000.0,0015.29,0003.30,0001.37
2021-12-29 12:09:00,,0811.7,5.01,0.00,22.5,22.2,00.0,31.5,24.1,06.1,0000.0,0014.84,0003.29,0001.37
2021-12-29 12:10:00,,0811.7,5.00,0.00,22.5,22.0,00.0,31.5,24.0,06.1,0000.0,0014.25,0003.28,0001.37
2021-12-29 12:11:00,,0811.7,5.00,0.00,22.4,21.8,00.0,31.5,24.0,06.1,0000.0,0013.70,0003.24,0001.39
2021-12-29 12:12:00,,0811.7,5.00,0.00,22.4,21.7,00.0,31.5,23.9,06.1,0000.0,0013.39,0003.20,0001.40
2021-12-29 12:13:00,,0811.7,5.00,0.00,22.4,21.6,00.0,31.5,23.9,06.1,0000.0,0012.89,0003.15,0001.41
2021-12-29 12:14:00,,0811.7,5.01,0.00,22.3,21.5,00.0,31.5,23.9,06.1,0000.0,0012.68,0003.15,0001.42
2021-12-29 12:15:00,,0811.7,4.98,0.00,22.3,21.5,00.0,31.4,23.8,06.1,0000.0,0012.93,0003.14,0001.43
2021-12-29 12:16:00,,0811.7,5.00,0.00,22.3,21.7,00.0,31.4,23.9,06.2,0000.0,0012.98,0003.17,0001.43
2021-12-29 12:17:00,,0811.7,5.01,0.00,22.4,22.4,00.0,31.5,24.1,06.2,0000.0,0012.36,0003.16,0001.41
2021-12-29 12:18:00,,0811.7,4.99,0.00,22.5,23.0,00.0,31.5,24.4,06.2,0000.0,0012.00,0003.19,0001.41
2021-12-29 12:19:00,,0811.7,5.01,0.00,22.7,23.4,00.0,31.5,24.6,06.1,0000.0,0012.13,0003.23,0001.42
2021-12-29 12:20:00,,0811.7,5.00,0.00,22.7,23.2,00.0,31.6,24.6,06.1,0000.0,0013.55,0003.24,0001.42
2021-12-29 12:21:00,,0811.9,4.99,0.00,22.7,22.9,00.0,31.6,24.5,06.0,0000.0,0014.23,0003.26,0001.41
2021-12-29 12:22:00,,0811.8,5.01,0.00,22.7,22.7,00.0,31.6,24.4,06.0,0000.0,0014.09,0003.22,0001.39
2021-12-29 12:23:00,,0811.9,5.00,0.00,22.7,22.4,00.0,31.6,24.3,06.0,0000.0,0014.03,0003.21,0001.38
2021-12-29 12:24:00,,0812.0,5.01,0.00,22.6,22.3,00.0,31.6,24.2,06.0,0000.0,0013.83,0003.23,0001.38
2021-12-29 12:25:00,,0812.1,4.99,0.00,22.6,22.1,00.0,31.6,24.1,06.1,0000.0,0014.23,0003.19,0001.37
2021-12-29 12:26:00,,0812.1,4.99,0.00,22.5,21.9,00.0,31.6,24.1,06.1,0000.0,0014.84,0003.20,0001.37
2021-12-29 12:27:00,,0812.2,5.01,0.00,22.5,21.8,00.0,31.5,24.0,06.1,0000.0,0014.96,0003.19,0001.37
2021-12-29 12:28:00,,0812.2,4.98,0.00,22.5,21.7,00.0,31.5,24.0,06.1,0000.0,0015.56,0003.23,0001.38
2021-12-29 12:29:00,,0812.1,5.01,0.00,22.4,21.6,00.0,31.5,24.0,06.1,0000.0,0015.65,0003.22,0001.36
2021-12-29 12:30:00,,0812.2,5.00,0.00,22.4,21.5,00.0,31.5,24.0,06.1,0000.0,0015.12,0003.22,0001.33
2021-12-29 12:31:00,,0812.2,5.00,0.00,22.4,21.5,00.0,31.5,23.9,06.1,0000.0,0013.20,0003.22,0001.33
2021-12-29 12:32:00,,0812.2,5.01,0.00,22.4,21.7,00.0,31.5,24.0,06.1,0000.0,0012.01,0003.23,0001.32
2021-12-29 12:33:00,,0812.1,5.00,0.00,22.5,22.4,00.0,31.5,24.2,06.1,0000.0,0011.15,0003.23,0001.32
2021-12-29 12:34:00,,0812.1,5.00,0.00,22.6,23.1,00.0,31.5,24.5,06.0,0000.0,0011.14,0003.22,0001.31
2021-12-29 12:35:00,,0812.1,5.01,0.00,22.7,23.2,00.0,31.6,24.6,06.0,0000.0,0011.39,0003.27,0001.30
2021-12-29 12:36:00,,0812.0,4.99,0.00,22.7,22.9,00.0,31.6,24.5,06.0,0000.0,0011.81,0003.29,0001.29
2021-12-29 12:37:00,,0812.0,5.00,0.00,22.7,22.7,00.0,31.6,24.4,06.0,0000.0,0010.76,0003.27,0001.29
2021-12-29 12:38:00,,0812.1,5.00,0.00,22.7,22.5,00.0,31.6,24.4,06.0,0000.0,0011.63,0003.28,0001.29
2021-12-29 12:39:00,,0812.1,5.01,0.00,22.6,22.3,00.0,31.6,24.3,06.0,0000.0,0011.15,0003.25,0001.30
2021-12-29 12:40:00,,0812.2,4.99,0.00,22.6,22.1,00.0,31.6,24.3,06.0,0000.0,0010.78,0003.22,0001.30
2021-12-29 12:41:00,,0812.1,5.01,0.00,22.6,22.0,00.0,31.6,24.2,06.0,0000.0,0010.97,0003.20,0001.30
2021-12-29 12:42:00,,0812.1,4.99,0.00,22.6,21.9,00.0,31.5,24.2,06.0,0000.0,0010.95,0003.17,0001.29
2021-12-29 12:43:00,,0812.2,5.00,0.00,22.5,21.8,00.0,31.5,24.1,06.0,0000.0,0011.19,0003.18,0001.29
2021-12-29 12:44:00,,0812.2,5.00,0.00,22.4,21.6,00.0,31.5,24.0,06.0,0000.0,0011.30,0003.22,0001.31
2021-12-29 12:45:00,,0812.2,4.99,0.00,22.4,21.5,00.0,31.5,23.9,06.1,0000.0,0011.75,0003.24,0001.31
2021-12-29 12:46:00,,0812.3,5.01,0.00,22.4,21.8,00.0,31.5,23.9,06.1,0000.0,0011.98,0003.19,0001.30
2021-12-29 12:47:00,,0812.3,4.99,0.00,22.5,22.5,00.0,31.5,24.2,06.0,0000.0,0010.99,0003.17,0001.29
2021-12-29 12:48:00,,0812.4,5.00,0.00,22.6,23.2,00.0,31.5,24.5,06.0,0000.0,0010.77,0003.19,0001.28
2021-12-29 12:49:00,,0812.4,5.00,0.00,22.7,23.2,00.0,31.6,24.6,05.9,0000.0,0009.56,0003.15,0001.27
2021-12-29 12:50:00,,0812.5,4.99,0.00,22.7,22.9,00.0,31.6,24.5,05.9,0000.0,0009.48,0003.15,0001.26
2021-12-29 12:51:00,,0812.5,5.01,0.00,22.7,22.7,00.0,31.6,24.4,05.9,0000.0,0010.30,0003.14,0001.23
2021-12-29 12:52:00,,0812.5,5.00,0.00,22.7,22.5,00.0,31.6,24.3,06.0,0000.0,0010.01,0003.08,0001.20
2021-12-29 12:53:00,,0812.5,4.99,0.00,22.6,22.3,00.0,31.6,24.3,06.0,0000.0,0010.25,0003.11,0001.20
2021-12-29 12:54:00,,0812.5,4.99,0.00,22.6,22.2,00.0,31.6,24.2,06.0,0000.0,0010.94,0003.09,0001.18
2021-12-29 12:55:00,,0812.5,5.02,0.00,22.6,22.0,00.0,31.6,24.2,06.0,0000.0,0011.48,0003.07,0001.17
2021-12-29 12:56:00,,0812.5,4.99,0.00,22.5,21.9,00.0,31.6,24.1,06.0,0000.0,0012.14,0003.10,0001.15
2021-12-29 12:57:00,,0812.6,5.01,0.00,22.5,21.8,00.0,31.5,24.1,06.1,0000.0,0012.17,0003.17,0001.15
2021-12-29 12:58:00,,0812.6,5.00,0.00,22.5,21.7,00.0,31.5,24.0,06.1,0000.0,0012.83,0003.29,0001.17
2021-12-29 12:59:00,,0812.6,4.99,0.00,22.5,21.6,00.0,31.5,24.0,06.2,0000.0,0013.63,0003.43,0001.20
